Regional Weather Roundup
Issued by NWS Goodland, KS

Home | Current Version | Previous Version | Graphics & Text | Print | Product List | Glossary On
Versions: 1 2 3 4 5 6 7 8 9 10 11 12 13 14 15 16 17 18 19 20 21 22 23 24 25 26 27 28 29 30 31 32 33 34 35 36 37 38 39 40 41 42 43 44 45 46 47 48 49 50
573
ASUS43 KGLD 200108
RWRGLD

GOODLAND FORECAST AREA HOURLY WEATHER ROUNDUP
NATIONAL WEATHER SERVICE GOODLAND KS
700 PM MDT SAT AUG 19 2017

...OFFICIAL OBSERVATIONS...

CITY           SKY/WX    TMP DP  RH WIND       PRES   REMARKS
GOODLAND KS    CLEAR     86  58  38 S12G23    29.90R
HILL CITY KS   CLOUDY    91  59  33 S7        29.84R
IMPERIAL NEB   CLOUDY    89  60  37 S6        29.85S
MCCOOK NEB     CLOUDY    88  63  43 S12       29.81F
AKRON CO       CLEAR     87  45  23 N3        29.95
BURLINGTON CO  CLEAR     86  57  37 S13G22    29.94S
LIMON CO         N/A     79  49  34 S6        30.02S
$$

...UNOFFICIAL OBSERVATIONS...

CITY           SKY/WX    TMP DP  RH WIND       PRES   REMARKS
LENORA KS        N/A     84  32  15 S6          N/A
NORTON KS      MOCLDY    90  54  29 SE14G21   29.82
TRENTON NEB      N/A     83  32  16 CALM        N/A
KIT CARSON CO    N/A     85  53  33 MISG        N/A
YUMA CO        FAIR      79  59  50 SE9       29.91S
$$




USA.gov is the U.S. government's official web portal to all federal, state and local government web resources and services.